RLTS2 YMES-YTEM

Flight info

Callsign RLTS2
Flight time 1h 40m
Altitude 7500
Route ESL5 YHOT DCT AY W638 WG DCT
Aircraft PC21/M-S/LB1

Departure

Time 2026-05-06 11:07
Airport RAAF Base East Sale (YMES)

Arrival

Time 2026-05-06 12:47
Airport Temora Airport (YTEM)
Time Latitude Longitude Altitude Speed Heading
2026-05-06 10:47 -38.09903 147.13612 26 ft 0 kts 188°
2026-05-06 11:00 -38.09925 147.13615 25 ft 2 kts 111°
2026-05-06 11:00 -38.09933 147.13685 25 ft 10 kts 99°
2026-05-06 11:00 -38.09943 147.13765 26 ft 6 kts 99°
2026-05-06 11:00 -38.09950 147.13818 26 ft 6 kts 98°
2026-05-06 11:01 -38.09956 147.13871 26 ft 4 kts 98°
2026-05-06 11:01 -38.09941 147.13893 27 ft 7 kts
2026-05-06 11:01 -38.09914 147.13932 28 ft 6 kts 99°
2026-05-06 11:01 -38.09922 147.14013 27 ft 9 kts 78°
2026-05-06 11:02 -38.09876 147.14038 28 ft 8 kts
2026-05-06 11:02 -38.09852 147.14080 28 ft 11 kts 98°
2026-05-06 11:02 -38.09869 147.14215 27 ft 17 kts 99°
2026-05-06 11:02 -38.09887 147.14362 23 ft 16 kts 99°
2026-05-06 11:03 -38.09904 147.14499 22 ft 16 kts 99°
2026-05-06 11:03 -38.09921 147.14633 19 ft 15 kts 98°
2026-05-06 11:03 -38.09937 147.14767 19 ft 14 kts 98°
2026-05-06 11:03 -38.09952 147.14887 19 ft 14 kts 98°
2026-05-06 11:04 -38.09969 147.15029 20 ft 20 kts 100°
2026-05-06 11:04 -38.09988 147.15172 24 ft 15 kts 99°
2026-05-06 11:04 -38.09987 147.15261 24 ft 8 kts 64°
2026-05-06 11:04 -38.09974 147.15288 24 ft 0 kts 51°
2026-05-06 11:05 -38.09973 147.15289 24 ft 0 kts 49°
2026-05-06 11:05 -38.09921 147.15324 25 ft 11 kts 10°
2026-05-06 11:06 -38.09864 147.15307 25 ft 9 kts 285°
2026-05-06 11:06 -38.09851 147.15215 24 ft 7 kts 278°
2026-05-06 11:06 -38.09850 147.15202 22 ft 0 kts 280°
2026-05-06 11:07 -38.09835 147.15107 23 ft 43 kts 281°
2026-05-06 11:07 -38.09745 147.14376 39 ft 115 kts 278°
2026-05-06 11:07 -38.09595 147.13169 239 ft 165 kts 279°
2026-05-06 11:07 -38.09403 147.11585 641 ft 193 kts 278°
2026-05-06 11:08 -38.09200 147.09864 1214 ft 200 kts 277°
2026-05-06 11:08 -38.08691 147.08247 1915 ft 207 kts 313°
2026-05-06 11:08 -38.07265 147.07831 2514 ft 231 kts 12°
2026-05-06 11:08 -38.05996 147.09147 3055 ft 251 kts 58°
2026-05-06 11:09 -38.05332 147.11231 3791 ft 256 kts 70°
2026-05-06 11:09 -38.04785 147.13364 4651 ft 254 kts 73°
2026-05-06 11:09 -38.04305 147.15537 5373 ft 259 kts 75°
2026-05-06 11:09 -38.03665 147.17693 5904 ft 270 kts 48°
2026-05-06 11:10 -38.02057 147.18907 6205 ft 267 kts 18°
2026-05-06 11:10 -38.00302 147.19544 6913 ft 262 kts 11°
2026-05-06 11:10 -37.98532 147.20017 7478 ft 264 kts
2026-05-06 11:10 -37.96721 147.20472 7987 ft 271 kts
2026-05-06 11:11 -37.94792 147.20913 7758 ft 294 kts
2026-05-06 11:11 -37.92701 147.21301 7544 ft 310 kts
2026-05-06 11:11 -37.90552 147.21672 7518 ft 312 kts
2026-05-06 11:11 -37.88396 147.22016 7624 ft 313 kts
2026-05-06 11:12 -37.86240 147.22356 7605 ft 313 kts
2026-05-06 11:12 -37.84069 147.22691 7478 ft 315 kts
2026-05-06 11:12 -37.81889 147.23042 7363 ft 316 kts
2026-05-06 11:12 -37.79717 147.23420 7309 ft 315 kts
2026-05-06 11:13 -37.77558 147.23824 7283 ft 314 kts
2026-05-06 11:13 -37.75405 147.24265 7220 ft 314 kts
2026-05-06 11:13 -37.73247 147.24734 7132 ft 314 kts
2026-05-06 11:13 -37.71094 147.25219 7067 ft 313 kts
2026-05-06 11:14 -37.68952 147.25711 7035 ft 312 kts
2026-05-06 11:14 -37.66810 147.26206 7017 ft 313 kts
2026-05-06 11:14 -37.64668 147.26692 6988 ft 314 kts
2026-05-06 11:14 -37.62519 147.27125 6972 ft 311 kts
2026-05-06 11:15 -37.60376 147.27493 6973 ft 311 kts
2026-05-06 11:15 -37.58219 147.27814 6956 ft 310 kts
2026-05-06 11:15 -37.56082 147.28081 7035 ft 306 kts
2026-05-06 11:15 -37.53981 147.28322 7467 ft 301 kts
2026-05-06 11:16 -37.51904 147.28504 7563 ft 307 kts
2026-05-06 11:16 -37.49760 147.28633 7487 ft 308 kts
2026-05-06 11:16 -37.47606 147.28718 7429 ft 310 kts 360°
2026-05-06 11:16 -37.45453 147.28836 7540 ft 310 kts
2026-05-06 11:17 -37.43297 147.28956 7565 ft 311 kts
2026-05-06 11:17 -37.41126 147.29105 7487 ft 312 kts
2026-05-06 11:17 -37.38948 147.29307 7422 ft 313 kts
2026-05-06 11:17 -37.36789 147.29509 7482 ft 306 kts
2026-05-06 11:18 -37.34653 147.29528 7492 ft 309 kts 355°
2026-05-06 11:18 -37.32518 147.29316 7461 ft 306 kts 351°
2026-05-06 11:18 -37.30409 147.29004 7456 ft 305 kts 355°
2026-05-06 11:18 -37.28284 147.29099 7415 ft 307 kts
2026-05-06 11:19 -37.26153 147.29371 7412 ft 308 kts
2026-05-06 11:19 -37.24027 147.29745 7349 ft 310 kts
2026-05-06 11:19 -37.21881 147.30178 7213 ft 314 kts
2026-05-06 11:19 -37.19745 147.30630 7124 ft 309 kts
2026-05-06 11:20 -37.17627 147.31085 7118 ft 308 kts
2026-05-06 11:20 -37.15520 147.31524 7095 ft 310 kts
2026-05-06 11:20 -37.13389 147.31973 7021 ft 310 kts
2026-05-06 11:20 -37.11268 147.32358 6939 ft 305 kts
2026-05-06 11:21 -37.09156 147.32751 6911 ft 307 kts
2026-05-06 11:21 -37.07106 147.33515 6823 ft 314 kts 30°
2026-05-06 11:21 -37.05500 147.35392 6738 ft 317 kts 41°
2026-05-06 11:21 -37.03542 147.36183 6793 ft 302 kts 343°
2026-05-06 11:22 -37.02183 147.34434 6985 ft 294 kts 281°
2026-05-06 11:22 -37.02882 147.32173 7041 ft 301 kts 219°
2026-05-06 11:22 -37.04911 147.31663 6902 ft 314 kts 165°
2026-05-06 11:22 -37.06408 147.33510 6894 ft 318 kts 104°
2026-05-06 11:23 -37.05826 147.35997 6814 ft 310 kts 35°
2026-05-06 11:23 -37.03841 147.36202 6920 ft 296 kts 338°
2026-05-06 11:23 -37.01936 147.35245 7086 ft 297 kts 338°
2026-05-06 11:23 -36.99975 147.34443 7367 ft 295 kts 341°
2026-05-06 11:24 -36.98020 147.33679 7600 ft 294 kts 340°
2026-05-06 11:24 -36.96054 147.32903 7733 ft 297 kts 341°
2026-05-06 11:24 -36.94065 147.32170 7744 ft 303 kts 341°
2026-05-06 11:24 -36.91994 147.31398 7308 ft 315 kts 341°
2026-05-06 11:25 -36.89915 147.30571 7188 ft 312 kts 340°
2026-05-06 11:25 -36.87865 147.29696 7088 ft 310 kts 339°
2026-05-06 11:25 -36.85825 147.28823 7015 ft 311 kts 340°
2026-05-06 11:25 -36.83795 147.27933 7025 ft 306 kts 338°
2026-05-06 11:26 -36.81823 147.27044 7151 ft 300 kts 337°
2026-05-06 11:26 -36.80051 147.25596 6465 ft 316 kts 312°
2026-05-06 11:26 -36.78720 147.23330 5539 ft 328 kts 308°
2026-05-06 11:26 -36.76960 147.21575 4970 ft 326 kts 329°
2026-05-06 11:27 -36.74989 147.20179 4513 ft 323 kts 330°
2026-05-06 11:27 -36.73028 147.18829 4342 ft 319 kts 330°
2026-05-06 11:27 -36.71106 147.17515 4159 ft 321 kts 329°
2026-05-06 11:27 -36.69199 147.16176 4169 ft 308 kts 330°
2026-05-06 11:28 -36.67331 147.14889 4073 ft 311 kts 330°
2026-05-06 11:28 -36.66079 147.14025 4011 ft 308 kts 330°
2026-05-06 11:28 -36.63527 147.12373 3849 ft 307 kts 333°
2026-05-06 11:28 -36.62242 147.11587 3657 ft 312 kts 334°
2026-05-06 11:29 -36.60274 147.10496 3612 ft 309 kts 335°
2026-05-06 11:29 -36.58326 147.09420 3641 ft 306 kts 335°
2026-05-06 11:29 -36.56365 147.08421 3562 ft 304 kts 341°
2026-05-06 11:29 -36.54301 147.07817 3508 ft 304 kts 348°
2026-05-06 11:30 -36.52223 147.07344 3525 ft 302 kts 348°
2026-05-06 11:30 -36.50177 147.06866 3498 ft 299 kts 348°
2026-05-06 11:30 -36.48144 147.06363 3473 ft 301 kts 344°
2026-05-06 11:30 -36.46080 147.05823 3420 ft 306 kts 354°
2026-05-06 11:31 -36.44003 147.05282 3359 ft 304 kts 353°
2026-05-06 11:31 -36.41940 147.04768 3317 ft 303 kts 347°
2026-05-06 11:31 -36.39876 147.04274 3222 ft 302 kts 348°
2026-05-06 11:31 -36.37811 147.03967 2924 ft 300 kts
2026-05-06 11:32 -36.35898 147.05047 2112 ft 321 kts 41°
2026-05-06 11:32 -36.34273 147.06866 2458 ft 286 kts 27°
2026-05-06 11:32 -36.32505 147.06706 3058 ft 270 kts 329°
2026-05-06 11:32 -36.30897 147.05119 1470 ft 319 kts 319°
2026-05-06 11:33 -36.29982 147.04141 4637 ft 96 kts 137°
2026-05-06 11:33 -36.30162 147.04489 2043 ft 240 kts 323°
2026-05-06 11:33 -36.28370 147.03126 1438 ft 299 kts 338°
2026-05-06 11:33 -36.26454 147.02367 1906 ft 284 kts 343°
2026-05-06 11:34 -36.24581 147.01690 2215 ft 279 kts 343°
2026-05-06 11:34 -36.22707 147.01049 2451 ft 277 kts 356°
2026-05-06 11:34 -36.20875 147.00452 2584 ft 280 kts 344°
2026-05-06 11:34 -36.18946 146.99830 2702 ft 288 kts 344°
2026-05-06 11:35 -36.17003 146.99194 2776 ft 289 kts 344°
2026-05-06 11:35 -36.15054 146.98583 2803 ft 290 kts 344°
2026-05-06 11:35 -36.13093 146.97970 2817 ft 293 kts 344°
2026-05-06 11:35 -36.11125 146.97363 2807 ft 297 kts 345°
2026-05-06 11:36 -36.09092 146.96758 2781 ft 298 kts 345°
2026-05-06 11:36 -36.07088 146.96197 2693 ft 300 kts 347°
2026-05-06 11:36 -36.05011 146.96063 2747 ft 301 kts
2026-05-06 11:36 -36.02969 146.96634 2775 ft 302 kts 12°
2026-05-06 11:37 -36.00939 146.97299 2814 ft 301 kts 15°
2026-05-06 11:37 -35.99130 146.98551 2877 ft 304 kts 40°
2026-05-06 11:37 -35.97899 147.00677 2857 ft 307 kts 66°
2026-05-06 11:37 -35.97475 147.03239 3019 ft 307 kts 86°
2026-05-06 11:38 -35.96673 147.05563 3207 ft 300 kts 36°
2026-05-06 11:38 -35.94759 147.06509 3232 ft 296 kts 15°
2026-05-06 11:38 -35.92813 147.07231 3618 ft 291 kts 15°
2026-05-06 11:38 -35.90899 147.08086 3941 ft 294 kts 19°
2026-05-06 11:39 -35.88988 147.09013 4231 ft 296 kts 19°
2026-05-06 11:39 -35.87065 147.09960 4383 ft 300 kts 20°
2026-05-06 11:39 -35.85147 147.10948 4520 ft 299 kts 21°
2026-05-06 11:39 -35.83233 147.11977 4617 ft 302 kts 22°
2026-05-06 11:40 -35.81311 147.13034 4716 ft 303 kts 22°
2026-05-06 11:40 -35.79377 147.14083 4820 ft 303 kts 21°
2026-05-06 11:40 -35.77427 147.15088 4930 ft 305 kts 20°
2026-05-06 11:40 -35.75456 147.16061 5044 ft 306 kts 19°
2026-05-06 11:41 -35.73476 147.17005 5191 ft 305 kts 19°
2026-05-06 11:41 -35.71500 147.17905 5311 ft 299 kts 18°
2026-05-06 11:41 -35.69520 147.18799 5380 ft 305 kts 18°
2026-05-06 11:41 -35.67521 147.19749 5402 ft 310 kts 19°
2026-05-06 11:42 -35.65525 147.20772 5434 ft 313 kts 22°
2026-05-06 11:42 -35.63578 147.21993 5426 ft 316 kts 27°
2026-05-06 11:42 -35.61690 147.23392 5429 ft 317 kts 32°
2026-05-06 11:42 -35.59893 147.24974 5448 ft 320 kts 33°
2026-05-06 11:43 -35.57939 147.26276 5444 ft 321 kts 21°
2026-05-06 11:43 -35.55886 147.27357 5397 ft 320 kts 21°
2026-05-06 11:43 -35.53848 147.28417 5388 ft 316 kts 21°
2026-05-06 11:44 -35.49787 147.30565 5387 ft 321 kts 22°
2026-05-06 11:44 -35.47735 147.31639 5381 ft 321 kts 20°
2026-05-06 11:44 -35.45652 147.32649 5372 ft 324 kts 19°
2026-05-06 11:44 -35.43549 147.33639 5365 ft 322 kts 19°
2026-05-06 11:45 -35.41459 147.34614 5361 ft 321 kts 19°
2026-05-06 11:45 -35.39385 147.35638 5357 ft 321 kts 20°
2026-05-06 11:45 -35.37333 147.36655 5354 ft 323 kts 20°
2026-05-06 11:45 -35.35226 147.37693 5364 ft 322 kts 20°
2026-05-06 11:46 -35.33178 147.38697 5356 ft 322 kts 20°
2026-05-06 11:46 -35.31094 147.39711 5343 ft 324 kts 20°
2026-05-06 11:46 -35.29008 147.40728 5314 ft 324 kts 20°
2026-05-06 11:46 -35.26911 147.41753 5253 ft 326 kts 20°
2026-05-06 11:47 -35.24808 147.42787 5223 ft 326 kts 20°
2026-05-06 11:47 -35.22703 147.43819 5182 ft 325 kts 20°
2026-05-06 11:47 -35.20594 147.44843 5097 ft 326 kts 19°
2026-05-06 11:47 -35.18466 147.45853 4990 ft 329 kts 19°
2026-05-06 11:48 -35.16289 147.46640 4903 ft 326 kts
2026-05-06 11:48 -35.14040 147.46824 4838 ft 322 kts 359°
2026-05-06 11:48 -35.11808 147.46940 4834 ft 321 kts
2026-05-06 11:48 -35.09575 147.47077 4757 ft 322 kts
2026-05-06 11:49 -35.07338 147.47241 4711 ft 321 kts
2026-05-06 11:49 -35.05111 147.47437 4668 ft 321 kts
2026-05-06 11:49 -35.02885 147.47615 4641 ft 321 kts
2026-05-06 11:49 -35.00657 147.47751 4590 ft 320 kts 360°
2026-05-06 11:50 -34.98434 147.47869 4559 ft 320 kts 360°
2026-05-06 11:50 -34.96210 147.47976 4543 ft 320 kts 359°
2026-05-06 11:50 -34.93985 147.48099 4521 ft 319 kts
2026-05-06 11:50 -34.91770 147.48257 4434 ft 320 kts
2026-05-06 11:51 -34.89555 147.48448 4433 ft 318 kts
2026-05-06 11:51 -34.87341 147.48641 4371 ft 321 kts
2026-05-06 11:51 -34.85110 147.48838 4283 ft 322 kts
2026-05-06 11:51 -34.82906 147.49047 4226 ft 321 kts
2026-05-06 11:52 -34.80681 147.49220 4184 ft 320 kts
2026-05-06 11:52 -34.78461 147.49366 4178 ft 318 kts
2026-05-06 11:52 -34.76250 147.49514 4162 ft 318 kts
2026-05-06 11:52 -34.74037 147.49665 4066 ft 319 kts
2026-05-06 11:53 -34.71820 147.49793 4047 ft 318 kts 360°
2026-05-06 11:53 -34.69613 147.49912 4007 ft 318 kts 359°
2026-05-06 11:53 -34.67399 147.50010 3929 ft 320 kts 360°
2026-05-06 11:53 -34.65189 147.50091 3977 ft 317 kts 359°
2026-05-06 11:54 -34.62985 147.50200 3953 ft 317 kts 360°
2026-05-06 11:54 -34.60784 147.50297 3927 ft 319 kts 359°
2026-05-06 11:54 -34.58550 147.50388 3875 ft 321 kts 359°
2026-05-06 11:54 -34.56326 147.50449 3861 ft 319 kts 358°
2026-05-06 11:55 -34.54120 147.50459 3881 ft 316 kts 356°
2026-05-06 11:55 -34.51918 147.50437 3874 ft 316 kts 356°
2026-05-06 11:55 -34.49718 147.50406 3841 ft 317 kts 356°
2026-05-06 11:55 -34.47509 147.50387 3784 ft 318 kts 356°
2026-05-06 11:56 -34.45301 147.50371 3752 ft 315 kts 356°
2026-05-06 11:56 -34.43134 147.50330 3664 ft 309 kts 356°
2026-05-06 11:56 -34.40997 147.50318 3601 ft 306 kts
2026-05-06 11:56 -34.39162 147.51460 3498 ft 303 kts 52°
2026-05-06 11:57 -34.38683 147.53900 3367 ft 311 kts 98°
2026-05-06 11:57 -34.39024 147.56521 2953 ft 320 kts 102°
2026-05-06 11:57 -34.39549 147.59091 2693 ft 308 kts 116°
2026-05-06 11:57 -34.40919 147.60909 2708 ft 288 kts 155°
2026-05-06 11:58 -34.42807 147.61176 2763 ft 275 kts 197°
2026-05-06 11:58 -34.44306 147.59881 2881 ft 266 kts 238°
2026-05-06 11:58 -34.44588 147.57745 3058 ft 268 kts 284°
2026-05-06 11:58 -34.43405 147.56013 2937 ft 286 kts 331°
2026-05-06 11:59 -34.41427 147.56005 2784 ft 301 kts 27°
2026-05-06 11:59 -34.40325 147.58045 2722 ft 300 kts 88°
2026-05-06 11:59 -34.41156 147.60176 2953 ft 283 kts 147°
2026-05-06 11:59 -34.42945 147.60309 3192 ft 268 kts 214°
2026-05-06 12:00 -34.43556 147.58284 2785 ft 284 kts 284°
2026-05-06 12:00 -34.42214 147.56428 1953 ft 312 kts 319°
2026-05-06 12:00 -34.40999 147.55299 4433 ft 40 kts 135°
2026-05-06 12:00 -34.41347 147.55916 3266 ft 127 kts 322°
2026-05-06 12:01 -34.39643 147.54605 1620 ft 304 kts 349°
2026-05-06 12:01 -34.38505 147.56030 2773 ft 270 kts 106°
2026-05-06 12:01 -34.39987 147.57055 2383 ft 279 kts 185°
2026-05-06 12:01 -34.42006 147.56797 1759 ft 295 kts 188°
2026-05-06 12:02 -34.42456 147.56773 5517 ft 132 kts
2026-05-06 12:02 -34.42555 147.56760 1834 ft 289 kts 193°
2026-05-06 12:02 -34.44598 147.56770 2245 ft 287 kts 142°
2026-05-06 12:02 -34.44344 147.58758 2264 ft 295 kts 17°
2026-05-06 12:03 -34.42373 147.58156 1460 ft 306 kts 333°
2026-05-06 12:03 -34.40865 147.57543 4077 ft 205 kts
2026-05-06 12:03 -34.39267 147.57137 1659 ft 314 kts 330°
2026-05-06 12:03 -34.38503 147.55082 2039 ft 286 kts 238°
2026-05-06 12:04 -34.40283 147.54744 1666 ft 293 kts 157°
2026-05-06 12:04 -34.42046 147.55871 1680 ft 282 kts 152°
2026-05-06 12:04 -34.43759 147.57052 1659 ft 282 kts 151°
2026-05-06 12:04 -34.45479 147.58218 1896 ft 287 kts 153°
2026-05-06 12:05 -34.46684 147.59973 2366 ft 285 kts 95°
2026-05-06 12:05 -34.45573 147.61661 2650 ft 280 kts
2026-05-06 12:05 -34.43960 147.60583 2262 ft 285 kts 296°
2026-05-06 12:05 -34.43495 147.58238 1866 ft 291 kts 277°
2026-05-06 12:06 -34.42591 147.56178 1919 ft 288 kts 328°
2026-05-06 12:06 -34.40729 147.56427 2076 ft 292 kts 44°
2026-05-06 12:06 -34.40441 147.58681 2262 ft 288 kts 122°
2026-05-06 12:06 -34.42089 147.59542 2530 ft 270 kts 199°
2026-05-06 12:07 -34.43244 147.57878 2390 ft 277 kts 259°
2026-05-06 12:07 -34.43066 147.55485 1776 ft 296 kts 278°
2026-05-06 12:07 -34.42723 147.53008 1469 ft 298 kts 279°
2026-05-06 12:07 -34.42345 147.50553 1492 ft 286 kts 281°
2026-05-06 12:08 -34.42178 147.50144 5155 ft 143 kts 96°
2026-05-06 12:08 -34.42046 147.49942 1461 ft 300 kts 279°
2026-05-06 12:08 -34.40701 147.48505 1648 ft 289 kts 14°
2026-05-06 12:08 -34.40016 147.50429 1673 ft 285 kts 121°
2026-05-06 12:09 -34.41740 147.51317 1534 ft 286 kts 182°
2026-05-06 12:09 -34.43706 147.50978 1651 ft 279 kts 191°
2026-05-06 12:09 -34.45012 147.49752 2793 ft 240 kts 257°
2026-05-06 12:09 -34.44493 147.47831 2780 ft 268 kts 316°
2026-05-06 12:10 -34.42625 147.47659 2269 ft 304 kts 33°
2026-05-06 12:10 -34.42019 147.50001 1559 ft 319 kts 97°
2026-05-06 12:10 -34.42555 147.52055 3676 ft 219 kts 105°
2026-05-06 12:10 -34.43405 147.53914 2487 ft 291 kts 147°
2026-05-06 12:11 -34.45166 147.55203 2515 ft 296 kts 153°
2026-05-06 12:11 -34.46551 147.56725 2676 ft 277 kts 111°
2026-05-06 12:11 -34.45839 147.58677 2859 ft 282 kts 18°
2026-05-06 12:11 -34.43931 147.58440 2478 ft 290 kts 325°
2026-05-06 12:12 -34.42941 147.56332 1788 ft 299 kts 280°
2026-05-06 12:12 -34.42631 147.53851 1610 ft 297 kts 278°
2026-05-06 12:12 -34.42335 147.51394 1456 ft 295 kts 278°
2026-05-06 12:12 -34.42093 147.49726 4163 ft 32 kts 112°
2026-05-06 12:13 -34.42137 147.50493 2998 ft 115 kts 279°
2026-05-06 12:13 -34.42307 147.48261 1482 ft 301 kts 221°
2026-05-06 12:13 -34.43915 147.48885 1561 ft 291 kts 103°
2026-05-06 12:13 -34.43038 147.50909 1478 ft 288 kts 26°
2026-05-06 12:14 -34.41300 147.50401 1565 ft 276 kts 308°
2026-05-06 12:14 -34.39970 147.49029 2514 ft 260 kts 357°
2026-05-06 12:14 -34.38982 147.50610 2266 ft 287 kts 111°
2026-05-06 12:14 -34.40668 147.51537 1455 ft 300 kts 188°
2026-05-06 12:15 -34.42746 147.51148 1147 ft 302 kts 189°
2026-05-06 12:15 -34.42982 147.51093 4618 ft 157 kts
2026-05-06 12:15 -34.43321 147.50934 1387 ft 300 kts 193°
2026-05-06 12:15 -34.43920 147.48953 1719 ft 296 kts 300°
2026-05-06 12:16 -34.42247 147.47671 2160 ft 282 kts 343°
2026-05-06 12:16 -34.40329 147.47136 2223 ft 285 kts 345°
2026-05-06 12:16 -34.38365 147.47016 2256 ft 289 kts 18°
2026-05-06 12:16 -34.37103 147.48819 2266 ft 296 kts 80°
2026-05-06 12:17 -34.37262 147.50435 2136 ft 297 kts 117°
2026-05-06 12:17 -34.38847 147.51761 1671 ft 291 kts 177°
2026-05-06 12:17 -34.40846 147.51468 1381 ft 288 kts 190°
2026-05-06 12:17 -34.42818 147.51136 1438 ft 285 kts 188°
2026-05-06 12:18 -34.44755 147.50796 1588 ft 276 kts 189°
2026-05-06 12:18 -34.46645 147.50456 2346 ft 256 kts 191°
2026-05-06 12:18 -34.48032 147.49586 3233 ft 231 kts 250°
2026-05-06 12:18 -34.47083 147.48186 2319 ft 295 kts
2026-05-06 12:19 -34.45135 147.49255 1645 ft 317 kts 29°
2026-05-06 12:19 -34.43845 147.50187 4304 ft 43 kts 207°
2026-05-06 12:19 -34.44099 147.50167 2197 ft 238 kts 32°
2026-05-06 12:19 -34.42105 147.50990 1522 ft 313 kts 348°
2026-05-06 12:20 -34.40570 147.49413 1723 ft 281 kts 309°
2026-05-06 12:20 -34.38863 147.48964 2247 ft 284 kts 30°
2026-05-06 12:20 -34.38523 147.51122 1830 ft 297 kts 129°
2026-05-06 12:20 -34.40433 147.51618 1328 ft 303 kts 189°
2026-05-06 12:21 -34.42496 147.51223 1285 ft 291 kts 192°
2026-05-06 12:21 -34.44500 147.50813 1472 ft 281 kts 190°
2026-05-06 12:21 -34.46284 147.50427 2645 ft 248 kts 192°
2026-05-06 12:21 -34.47657 147.49447 2987 ft 244 kts 253°
2026-05-06 12:22 -34.46574 147.48085 2088 ft 300 kts
2026-05-06 12:22 -34.44560 147.49039 1475 ft 314 kts 24°
2026-05-06 12:22 -34.43075 147.50029 4077 ft 191 kts 51°
2026-05-06 12:22 -34.41938 147.51290 2040 ft 306 kts 19°
2026-05-06 12:23 -34.39816 147.51607 2022 ft 299 kts 331°
2026-05-06 12:23 -34.38797 147.49682 2377 ft 273 kts 280°
2026-05-06 12:23 -34.38417 147.47483 2900 ft 261 kts 281°
2026-05-06 12:23 -34.38414 147.45355 3288 ft 258 kts 242°
2026-05-06 12:24 -34.40007 147.44285 2750 ft 296 kts 182°
2026-05-06 12:24 -34.41828 147.45461 2148 ft 318 kts 124°
2026-05-06 12:24 -34.42493 147.48005 1541 ft 319 kts 101°
2026-05-06 12:24 -34.42738 147.49945 4113 ft 15 kts 269°
2026-05-06 12:25 -34.42650 147.49371 3258 ft 79 kts 114°
2026-05-06 12:25 -34.43111 147.51620 2376 ft 239 kts 116°
2026-05-06 12:25 -34.43714 147.53547 3261 ft 266 kts 87°
2026-05-06 12:25 -34.42770 147.55665 3042 ft 309 kts 56°
2026-05-06 12:26 -34.42332 147.58164 3219 ft 309 kts 97°
2026-05-06 12:26 -34.41894 147.60629 3475 ft 311 kts 35°
2026-05-06 12:26 -34.40206 147.60195 2960 ft 303 kts 275°
2026-05-06 12:26 -34.41000 147.58151 2420 ft 271 kts 230°
2026-05-06 12:27 -34.42231 147.56397 2408 ft 271 kts 232°
2026-05-06 12:27 -34.43276 147.54526 2355 ft 273 kts 243°
2026-05-06 12:27 -34.43875 147.52356 2248 ft 273 kts 259°
2026-05-06 12:27 -34.44015 147.50058 2108 ft 279 kts 270°
2026-05-06 12:28 -34.43814 147.47713 2106 ft 279 kts 278°
2026-05-06 12:28 -34.43500 147.45429 2246 ft 273 kts 278°
2026-05-06 12:28 -34.43025 147.43325 3078 ft 252 kts 297°
2026-05-06 12:28 -34.41637 147.42035 3290 ft 274 kts 343°
2026-05-06 12:29 -34.39913 147.42981 2763 ft 310 kts 64°
2026-05-06 12:29 -34.40452 147.45348 1897 ft 316 kts 144°
2026-05-06 12:29 -34.42435 147.46220 2049 ft 296 kts 181°
2026-05-06 12:29 -34.43580 147.44736 1934 ft 282 kts 289°
2026-05-06 12:30 -34.41900 147.44231 1431 ft 305 kts 37°
2026-05-06 12:30 -34.41034 147.46460 1468 ft 301 kts 90°
2026-05-06 12:30 -34.41689 147.48813 1453 ft 300 kts 117°
2026-05-06 12:30 -34.42269 147.51208 1386 ft 291 kts 71°
2026-05-06 12:31 -34.40495 147.51837 1578 ft 244 kts
2026-05-06 12:31 -34.40807 147.51741 3032 ft 147 kts 198°
2026-05-06 12:31 -34.42437 147.51403 1199 ft 275 kts 190°
2026-05-06 12:31 -34.42216 147.50261 1241 ft 269 kts 23°
2026-05-06 12:32 -34.42978 147.51225 1442 ft 239 kts 174°
2026-05-06 12:32 -34.42619 147.52373 2373 ft 240 kts 13°
2026-05-06 12:32 -34.41484 147.53895 2193 ft 291 kts 97°
2026-05-06 12:32 -34.42987 147.55246 2130 ft 280 kts 174°
2026-05-06 12:33 -34.44707 147.56011 3133 ft 281 kts 132°
2026-05-06 12:33 -34.44211 147.58023 3125 ft 303 kts 14°
2026-05-06 12:33 -34.42549 147.57014 2954 ft 295 kts 287°
2026-05-06 12:33 -34.42883 147.54607 2154 ft 300 kts 255°
2026-05-06 12:34 -34.42902 147.52074 1419 ft 313 kts 279°
2026-05-06 12:34 -34.42616 147.50012 3448 ft 13 kts 291°
2026-05-06 12:34 -34.42529 147.50121 1720 ft 231 kts 182°
2026-05-06 12:34 -34.43758 147.51236 2809 ft 241 kts 92°
2026-05-06 12:35 -34.42748 147.52802 2859 ft 278 kts 10°
2026-05-06 12:35 -34.40674 147.52738 2360 ft 314 kts 352°
2026-05-06 12:35 -34.38455 147.52365 2193 ft 327 kts 345°
2026-05-06 12:35 -34.36273 147.51538 2215 ft 328 kts 334°
2026-05-06 12:36 -34.34331 147.50117 2273 ft 327 kts 324°
2026-05-06 12:36 -34.32308 147.48840 2274 ft 333 kts 342°
2026-05-06 12:36 -34.30351 147.49710 2077 ft 339 kts 85°
2026-05-06 12:36 -34.31811 147.51251 2031 ft 280 kts 156°
2026-05-06 12:37 -34.33700 147.51933 2080 ft 284 kts 165°
2026-05-06 12:37 -34.35621 147.52527 1991 ft 285 kts 174°
2026-05-06 12:37 -34.37600 147.52355 1681 ft 289 kts 192°
2026-05-06 12:37 -34.39598 147.51920 1391 ft 291 kts 189°
2026-05-06 12:38 -34.41585 147.51605 1435 ft 288 kts 188°
2026-05-06 12:38 -34.43511 147.51326 1501 ft 269 kts 186°
2026-05-06 12:38 -34.45317 147.51059 1874 ft 260 kts 182°
2026-05-06 12:38 -34.46848 147.52031 2347 ft 276 kts 118°
2026-05-06 12:39 -34.46345 147.54214 2408 ft 302 kts 38°
2026-05-06 12:39 -34.44410 147.55028 2280 ft 288 kts
2026-05-06 12:39 -34.42415 147.55363 2240 ft 287 kts
2026-05-06 12:39 -34.40452 147.55791 2367 ft 290 kts 15°
2026-05-06 12:40 -34.39353 147.57552 2178 ft 296 kts 109°
2026-05-06 12:40 -34.41006 147.58525 1822 ft 286 kts 199°
2026-05-06 12:40 -34.42142 147.56770 1763 ft 282 kts 260°
2026-05-06 12:40 -34.42422 147.54404 1531 ft 284 kts 261°
2026-05-06 12:41 -34.43297 147.52378 1755 ft 277 kts 205°
2026-05-06 12:41 -34.44805 147.53172 2529 ft 265 kts 104°
2026-05-06 12:41 -34.43832 147.54719 2584 ft 268 kts 358°
2026-05-06 12:41 -34.42784 147.53118 1751 ft 285 kts 275°
2026-05-06 12:42 -34.42616 147.50676 1367 ft 288 kts 274°
2026-05-06 12:42 -34.42239 147.49987 4294 ft 125 kts 10°
2026-05-06 12:42 -34.43369 147.50178 1334 ft 286 kts 165°
2026-05-06 12:42 -34.43648 147.51902 3100 ft 241 kts 32°
2026-05-06 12:43 -34.41965 147.52957 2243 ft 312 kts 35°
2026-05-06 12:43 -34.42308 147.54992 1965 ft 318 kts 156°
2026-05-06 12:43 -34.44421 147.55465 2098 ft 298 kts 175°
2026-05-06 12:43 -34.46281 147.55335 2648 ft 260 kts 217°
2026-05-06 12:44 -34.46543 147.53376 2514 ft 273 kts 302°
2026-05-06 12:44 -34.44833 147.52398 2061 ft 296 kts
2026-05-06 12:44 -34.42772 147.52959 1784 ft 300 kts 14°
2026-05-06 12:44 -34.40795 147.53635 2018 ft 289 kts 15°
2026-05-06 12:45 -34.38862 147.54029 2249 ft 282 kts 341°
2026-05-06 12:45 -34.38511 147.52213 1922 ft 279 kts 221°
2026-05-06 12:45 -34.42458 147.51323 1252 ft 293 kts 188°
2026-05-06 12:46 -34.43506 147.50401 1779 ft 186 kts 335°
2026-05-06 12:46 -34.42420 147.50488 1613 ft 151 kts
2026-05-06 12:46 -34.41365 147.50708 1624 ft 155 kts
2026-05-06 12:46 -34.40306 147.50906 1609 ft 150 kts 12°
2026-05-06 12:47 -34.40158 147.51772 1429 ft 126 kts 167°
2026-05-06 12:47 -34.41038 147.51648 1072 ft 133 kts 190°
2026-05-06 12:47 -34.41947 147.51474 911 ft 128 kts 189°
2026-05-06 12:47 -34.42612 147.51345 914 ft 46 kts 189°
2026-05-06 12:48 -34.42831 147.51304 921 ft 10 kts 176°
2026-05-06 12:48 -34.42854 147.51364 918 ft 10 kts 98°
2026-05-06 12:48 -34.42832 147.51406 917 ft 8 kts 343°
2026-05-06 12:48 -34.42792 147.51367 918 ft 4 kts 351°
2026-05-06 12:49 -34.42782 147.51370 918 ft 1 kts 74°
2026-05-06 12:49 -34.42784 147.51380 918 ft 0 kts 107°